Weather History for Madisonville, KY

Change the Weather History Date:

Friday, December 7, 2012

  Actual Average (KOWB) Record (KOWB)
Temperature  
Mean Temperature 56 °F -  
Max Temperature 59 °F 46 °F 70 °F (1951)
Min Temperature 52 °F 29 °F -2 °F (1984)
Degree Days  
Heating Degree Days 10    
Growing Degree Days 6 (Base 50)    
Moisture  
Dew Point 57 °F    
Average Humidity 100    
Maximum Humidity 100    
Minimum Humidity 99    
Precipitation  
Precipitation 0.80 in - - ()
Sea Level Pressure  
Sea Level Pressure 29.91 in    
Wind  
Wind Speed 3 mph (SSW)    
Max Wind Speed 8 mph    
Max Gust Speed -    
Visibility 5 miles    
Events Rain    
Averages and records for this station are not official NWS values.
T = Trace of Precipitation, MM = Missing Value Source: NWS Daily Summary

Daily Weather History Graph

Daily Weather History Graph

Search for Another Location

Airport:

Trip Planner

Search our weather history database for the weather conditions in past years. The results will help you decide how hot, cold, wet, or windy it might be!

Date:

Astronomy

Dec. 07, 2012 Rise Set
Actual Time 6:50 AM CST 4:31 PM CST
Civil Twilight 6:21 AM CST 5:00 PM CST
Nautical Twilight 5:49 AM CST 5:33 PM CST
Astronomical Twilight 5:17 AM CST 6:04 PM CST
Moon 12:16 AM CST (12/7) 12:22 PM CST (12/7)
Length of Visible Light 10h 38m
Length of Day
9h 40m
Last Quarter, 38% of the Moon is Illuminated
Dec 7
Last Quarter
Dec 13
New
Dec 19
First Quarter
Dec 28
Full
Jan 4
Last Quarter

Hourly Weather History & Observations

Time (CST) Temp. Dew Point Humidity Pressure Visibility Wind Dir Wind Speed Gust Speed Precip Events Conditions
12:15 AM 52.0 °F 52.0 °F 100% 29.97 in 5.0 mi SE 3.5 mph - N/A   Overcast
12:35 AM 52.3 °F 52.3 °F 100% 29.97 in 7.0 mi Calm Calm - N/A   Overcast
12:55 AM 52.3 °F 52.3 °F 100% 29.96 in 7.0 mi Calm Calm - N/A   Overcast
1:15 AM 52.7 °F 52.7 °F 100% 29.96 in 7.0 mi Calm Calm - N/A   Overcast
1:35 AM 52.7 °F 52.7 °F 100% 29.97 in 7.0 mi Calm Calm - N/A   Overcast
1:55 AM 52.9 °F 52.9 °F 100% 29.96 in 5.0 mi Calm Calm - 0.01 in Rain Light Rain
2:15 AM 52.9 °F 52.9 °F 100% 29.96 in 5.0 mi Calm Calm - N/A Rain Light Rain
2:35 AM 52.9 °F 52.9 °F 100% 29.96 in 2.5 mi Calm Calm - 0.09 in Rain Heavy Rain
2:55 AM 52.7 °F 52.7 °F 100% 29.95 in 1.5 mi NNE 4.6 mph - 0.25 in Rain Light Rain
3:15 AM 53.6 °F 53.6 °F 100% 29.94 in 2.0 mi SE 3.5 mph - 0.10 in Rain Heavy Rain
3:35 AM 53.4 °F 53.4 °F 100% 29.94 in 2.0 mi Calm Calm - 0.14 in Rain Rain
3:55 AM 54.0 °F 54.0 °F 100% 29.94 in 2.5 mi Calm Calm - 0.19 in Rain Heavy Rain
4:15 AM 53.6 °F 53.6 °F 100% 29.94 in 1.5 mi Calm Calm - 0.05 in Rain Rain
4:35 AM 53.8 °F 53.8 °F 100% 29.94 in 1.2 mi Calm Calm - 0.08 in Rain Rain
4:55 AM 53.6 °F 53.6 °F 100% 29.94 in 1.5 mi Calm Calm - 0.10 in Rain Light Rain
5:15 AM 53.6 °F 53.6 °F 100% 29.94 in 1.2 mi Calm Calm - N/A Rain Rain
5:35 AM 53.6 °F 53.6 °F 100% 29.94 in 1.2 mi Calm Calm - N/A   Overcast
5:55 AM 53.8 °F 53.8 °F 100% 29.94 in 1.2 mi Calm Calm - 0.04 in Rain Heavy Rain
6:15 AM 54.7 °F 54.7 °F 100% 29.95 in 2.0 mi SE 3.5 mph - 0.01 in   Overcast
6:35 AM 55.4 °F 55.4 °F 100% 29.95 in 3.0 mi Calm Calm - 0.01 in Rain Light Rain
6:55 AM 55.4 °F 55.4 °F 100% 29.94 in 5.0 mi South 4.6 mph - 0.04 in Rain Light Rain
7:15 AM 55.4 °F 55.4 °F 100% 29.94 in 7.0 mi South 6.9 mph - N/A Rain Rain
7:35 AM 55.4 °F 55.4 °F 100% 29.93 in 2.5 mi South 5.8 mph - 0.05 in Rain Light Rain
7:55 AM 55.4 °F 55.4 °F 100% 29.94 in 5.0 mi South 5.8 mph - 0.06 in   Drizzle
8:15 AM 55.8 °F 55.8 °F 100% 29.94 in 10.0 mi South 8.1 mph - N/A   Overcast
8:35 AM 56.1 °F 55.9 °F 99% 29.94 in 7.0 mi South 5.8 mph - N/A Rain Light Rain
8:55 AM 56.3 °F 56.3 °F 100% 29.94 in 10.0 mi South 6.9 mph - N/A   Overcast
9:15 AM 56.5 °F 56.1 °F 99% 29.94 in 10.0 mi SSW 8.1 mph - N/A Rain Light Rain
9:35 AM 56.3 °F 56.3 °F 100% 29.94 in 5.0 mi SSW 8.1 mph - 0.05 in Rain Heavy Rain
9:55 AM 57.2 °F 57.0 °F 99% 29.94 in 10.0 mi SSW 6.9 mph - 0.06 in Rain Light Rain
10:15 AM 57.4 °F 57.2 °F 99% 29.94 in 7.0 mi SSW 6.9 mph - N/A   Drizzle
10:35 AM 57.2 °F 57.2 °F 100% 29.93 in 4.0 mi SSW 6.9 mph - 0.01 in Rain Rain
10:55 AM 57.2 °F 57.2 °F 100% 29.93 in 3.0 mi SSW 5.8 mph - 0.03 in Rain Heavy Rain
11:15 AM 57.4 °F 57.4 °F 100% 29.91 in 5.0 mi SSW 6.9 mph - N/A   Overcast
11:35 AM 57.6 °F 57.6 °F 100% 29.91 in 5.0 mi SSW 6.9 mph - N/A   Overcast
11:55 AM 57.7 °F 57.7 °F 100% 29.90 in 3.0 mi SSW 6.9 mph - 0.01 in Rain Heavy Rain
12:15 PM 58.1 °F 58.1 °F 100% 29.89 in 2.5 mi SSW 6.9 mph - 0.01 in   Drizzle
12:35 PM 58.3 °F 58.3 °F 100% 29.88 in 5.0 mi SSW 6.9 mph - 0.01 in   Overcast
12:55 PM 58.8 °F 58.8 °F 100% 29.88 in 4.0 mi SSW 8.1 mph - 0.01 in   Overcast
1:15 PM 59.0 °F 59.0 °F 100% 29.87 in 5.0 mi SSW 6.9 mph - N/A   Overcast
1:35 PM 59.0 °F 59.0 °F 100% 29.86 in 3.0 mi SSW 6.9 mph - N/A   Overcast
1:55 PM 59.2 °F 59.2 °F 100% 29.86 in 2.0 mi SSW 6.9 mph - N/A   Overcast
2:15 PM 59.4 °F 59.4 °F 100% 29.86 in 2.5 mi SW 6.9 mph - N/A   Overcast
2:35 PM 59.9 °F 59.9 °F 100% 29.86 in 4.0 mi SW 6.9 mph - N/A   Overcast
2:55 PM 59.9 °F 59.9 °F 100% 29.87 in 4.0 mi SW 5.8 mph - N/A   Overcast
3:15 PM 59.9 °F 59.9 °F 100% 29.87 in 4.0 mi SW 4.6 mph - N/A   Light Drizzle
3:35 PM 59.9 °F 59.9 °F 100% 29.87 in 4.0 mi SSW 3.5 mph - N/A   Overcast
3:55 PM 59.9 °F 59.9 °F 100% 29.87 in 5.0 mi SSW 4.6 mph - N/A   Overcast
4:15 PM 59.4 °F 59.4 °F 100% 29.87 in 4.0 mi South 3.5 mph - N/A   Mostly Cloudy
4:35 PM 59.0 °F 59.0 °F 100% 29.86 in 3.0 mi Calm Calm - N/A   Mostly Cloudy
4:55 PM 58.6 °F 58.6 °F 100% 29.87 in 5.0 mi South 5.8 mph - N/A   Mostly Cloudy
5:15 PM 58.3 °F 58.3 °F 100% 29.87 in 7.0 mi SSW 3.5 mph - N/A   Scattered Clouds
5:35 PM 58.1 °F 58.1 °F 100% 29.87 in 7.0 mi SSW 3.5 mph - N/A   Clear
5:55 PM 57.9 °F 57.9 °F 100% 29.88 in 7.0 mi SSW 5.8 mph - N/A   Clear
6:15 PM 58.3 °F 58.3 °F 100% 29.88 in 7.0 mi SSW 5.8 mph - N/A   Scattered Clouds
6:35 PM 59.0 °F 59.0 °F 100% 29.88 in 7.0 mi SSW 6.9 mph - N/A   Mostly Cloudy
7:15 PM 59.2 °F 59.2 °F 100% 29.88 in 7.0 mi SSW 6.9 mph - N/A   Overcast
7:35 PM 59.2 °F 59.2 °F 100% 29.89 in 7.0 mi SSW 5.8 mph - N/A   Overcast
7:55 PM 59.4 °F 59.4 °F 100% 29.89 in 7.0 mi SSW 6.9 mph - N/A   Overcast
8:15 PM 59.4 °F 59.4 °F 100% 29.89 in 7.0 mi SSW 5.8 mph - N/A   Overcast
8:35 PM 59.5 °F 59.5 °F 100% 29.89 in 7.0 mi SSW 5.8 mph - N/A   Overcast
8:55 PM 59.2 °F 59.2 °F 100% 29.89 in 5.0 mi South 5.8 mph - N/A   Overcast
9:15 PM 59.2 °F 59.2 °F 100% 29.89 in 7.0 mi SSW 8.1 mph - N/A   Overcast
9:35 PM 59.4 °F 59.4 °F 100% 29.89 in 7.0 mi SW 8.1 mph - N/A   Overcast
9:55 PM 59.4 °F 59.4 °F 100% 29.89 in 7.0 mi SW 5.8 mph - N/A   Overcast
10:15 PM 59.4 °F 59.4 °F 100% 29.89 in 5.0 mi South 5.8 mph - N/A   Overcast
10:35 PM 59.4 °F 59.4 °F 100% 29.89 in 7.0 mi SSW 3.5 mph - N/A   Overcast
10:55 PM 59.4 °F 59.4 °F 100% 29.88 in 7.0 mi South 5.8 mph - N/A   Overcast
11:15 PM 59.9 °F 59.5 °F 99% 29.88 in 7.0 mi SSW 6.9 mph - N/A   Overcast
11:35 PM 59.9 °F 59.9 °F 100% 29.88 in 7.0 mi SSW 6.9 mph - N/A   Overcast
11:55 PM 59.9 °F 59.9 °F 100% 29.87 in 7.0 mi SW 5.8 mph - N/A   Overcast